GW5072 Weather Reports


time (UTC)temp
C
wind
direction
speed
KPH
gust
KPH
rain 1hr
cm
rain 24hr
cm
rain mn
cm
humidity
%
barometer
mb
20260902194534 36 127 0.0 11.3 0.00 0.00 0.00 51 1012.7
20260902194007 36 176 0.0 11.3 0.00 0.00 0.00 53 1012.8
20260902193516 36 127 0.0 6.4 0.00 0.00 0.00 52 1012.9
20260902193026 36 140 0.0 8.0 0.00 0.00 0.00 53 1012.8
20260902192508 36 279 1.6 8.0 0.00 0.00 0.00 52 1013.0
20260902192016 36 198 0.0 8.0 0.00 0.00 0.00 51 1013.0
20260902191524 36 116 1.6 8.0 0.00 0.00 0.00 51 1013.2
20260902191007 36 250 0.0 8.0 0.00 0.00 0.00 51 1013.2
20260902190517 36 212 0.0 4.8 0.00 0.00 0.00 51 1013.3
20260902190025 36 228 0.0 4.8 0.00 0.00 0.00 51 1013.4
20260902185514 36 258 0.0 8.0 0.00 0.00 0.00 52 1013.4
20260902185014 36 231 0.0 8.0 0.00 0.00 0.00 53 1013.4
20260902184521 36 234 0.0 4.8 0.00 0.00 0.00 52 1013.5
20260902184018 36 231 0.0 6.4 0.00 0.00 0.00 53 1013.7
20260902183511 36 234 0.0 6.4 0.00 0.00 0.00 51 1013.7
20260902183032 36 196 0.0 8.0 0.00 0.00 0.00 51 1013.8
20260902182517 37 155 0.0 8.0 0.00 0.00 0.00 50 1013.9
20260902182010 37 113 1.6 8.0 0.00 0.00 0.00 49 1014.0
20260902181530 37 227 1.6 3.2 0.00 0.00 0.00 51 1014.1
20260902181018 37 8 0.0 6.4 0.00 0.00 0.00 52 1014.1
20260902180508 37 219 0.0 6.4 0.00 0.00 0.00 51 1014.2
20260902180031 37 267 0.0 9.7 0.00 0.00 0.00 52 1014.4
20260902175510 37 264 1.6 9.7 0.00 0.00 0.00 53 1014.5
20260902175018 36 283 1.6 6.4 0.00 0.00 0.00 54 1014.6
20260902174530 36 274 0.0 6.4 0.00 0.00 0.00 56 1014.7
20260902174009 36 231 0.0 4.8 0.00 0.00 0.00 57 1014.9
20260902173517 35 184 0.0 9.7 0.00 0.00 0.00 58 1014.9
20260902173024 35 236 0.0 9.7 0.00 0.00 0.00 62 1015.0
20260902172508 34 157 1.6 8.0 0.00 0.00 0.00 60 1015.0
20260902172019 33 226 0.0 4.8 0.00 0.00 0.00 61 1015.2
20260902171525 33 251 0.0 4.8 0.00 0.00 0.00 64 1015.3
20260902171017 33 275 0.0 3.2 0.00 0.00 0.00 67 1015.3
20260902170515 32 212 0.0 3.2 0.00 0.00 0.00 67 1015.3
20260902170019 32 264 0.0 3.2 0.00 0.00 0.00 67 1015.5
20260902165503 32 205 0.0 1.6 0.00 0.00 0.00 69 1015.6
20260902165003 32 267 0.0 1.6 0.00 0.00 0.00 70 1015.6
20260902164518 32 205 0.0 1.6 0.00 0.00 0.00 70 1015.5
20260902164004 32 265 0.0 1.6 0.00 0.00 0.00 70 1015.6
20260902163511 31 284 0.0 3.2 0.00 0.00 0.00 71 1015.6
20260902163019 31 230 0.0 3.2 0.00 0.00 0.00 72 1015.6
20260902162504 31 216 0.0 3.2 0.00 0.00 0.00 73 1015.7
20260902162011 31 226 0.0 12.9 0.00 0.00 0.00 72 1015.7
20260902161512 31 227 1.6 12.9 0.00 0.00 0.00 72 1015.7
20260902161003 31 214 0.0 4.8 0.00 0.00 0.00 73 1015.7
20260902160507 31 263 0.0 8.0 0.00 0.00 0.00 76 1015.7
20260902160010 31 252 1.6 8.0 0.00 0.00 0.00 76 1015.6
20260902155513 30 278 0.0 8.0 0.00 0.00 0.00 78 1015.6
20260902155008 30 259 0.0 8.0 0.00 0.00 0.00 79 1015.6
20260902154505 29 243 0.0 1.6 0.00 0.00 0.00 80 1015.6
20260902154012 28 257 0.0 3.2 0.00 0.00 0.00 83 1015.7
20260902153504 28 247 0.0 3.2 0.00 0.00 0.00 83 1015.7
20260902153007 28 230 0.0 1.6 0.00 0.00 0.00 83 1015.8
20260902152509 28 221 0.0 3.2 0.00 0.00 0.00 83 1015.8
20260902152011 28 223 0.0 3.2 0.00 0.00 0.00 84 1015.8
20260902151524 28 232 0.0 3.2 0.00 0.00 0.00 84 1015.8
20260902151007 28 258 0.0 1.6 0.00 0.00 0.00 85 1015.8
20260902150503 27 238 0.0 1.6 0.00 0.00 0.00 85 1015.8
20260902150023 27 214 0.0 1.6 0.00 0.00 0.00 86 1015.9
20260902145505 27 240 0.0 1.6 0.00 0.00 0.00 86 1015.7
20260902145016 27 255 0.0 4.8 0.00 0.00 0.00 86 1015.7
20260902144533 27 219 0.0 4.8 0.00 0.00 0.00 87 1015.7
20260902144003 27 191 0.0 3.2 0.00 0.00 0.00 87 1015.8
20260902143513 27 262 0.0 3.2 0.00 0.00 0.00 88 1015.8
20260902143017 27 203 0.0 1.6 0.00 0.00 0.00 88 1015.8
20260902142504 26 209 0.0 1.6 0.00 0.00 0.00 88 1015.8
20260902142010 26 222 0.0 1.6 0.00 0.00 0.00 88 1015.7
20260902141513 26 249 0.0 3.2 0.00 0.00 0.00 88 1015.8
20260902141016 26 166 0.0 3.2 0.00 0.00 0.00 88 1015.7
20260902140510 26 214 0.0 1.6 0.00 0.00 0.00 89 1015.7
20260902140010 26 212 0.0 0.0 0.00 0.00 0.00 89 1015.6
20260902135511 26 212 0.0 3.2 0.00 0.00 0.00 89 1015.6
20260902135009 26 214 0.0 3.2 0.00 0.00 0.00 89 1015.7
20260902134507 26 221 0.0 1.6 0.00 0.00 0.00 89 1015.7
20260902134011 26 221 0.0 1.6 0.00 0.00 0.00 89 1015.6
20260902133509 26 221 0.0 1.6 0.00 0.00 0.00 89 1015.6
20260902133027 26 148 0.0 1.6 0.00 0.00 0.00 89 1015.6
20260902132511 26 223 0.0 1.6 0.00 0.00 0.00 89 1015.5
20260902132009 26 227 0.0 1.6 0.00 0.00 0.00 89 1015.5
20260902131527 26 212 0.0 0.0 0.00 0.00 0.00 89 1015.4
20260902131007 26 212 0.0 0.0 0.00 0.00 0.00 89 1015.3
20260902130503 26 176 0.0 3.2 0.00 0.00 0.00 90 1015.3
20260902130032 26 227 0.0 3.2 0.00 0.00 0.00 90 1015.2
20260902125508 26 223 0.0 1.6 0.00 0.00 0.00 90 1015.1
20260902125016 26 230 0.0 1.6 0.00 0.00 0.00 90 1015.0
20260902124525 26 223 0.0 3.2 0.00 0.00 0.00 90 1015.0
20260902124005 26 221 0.0 3.2 0.00 0.00 0.00 90 1014.9
20260902123511 26 247 0.0 3.2 0.00 0.00 0.00 90 1014.7
20260902123017 26 221 0.0 3.2 0.00 0.00 0.00 90 1014.5
20260902122516 26 237 0.0 1.6 0.00 0.00 0.00 90 1014.4
20260902122013 26 222 0.0 1.6 0.00 0.00 0.00 90 1014.2
20260902121514 26 217 0.0 1.6 0.00 0.00 0.00 90 1014.1
20260902121019 26 267 0.0 1.6 0.00 0.00 0.00 90 1013.9
20260902120511 26 223 0.0 1.6 0.00 0.00 0.00 90 1013.9
20260902120011 26 241 0.0 1.6 0.00 0.00 0.00 89 1013.9
20260902115513 26 224 0.0 1.6 0.00 0.00 0.00 89 1014.0
20260902115010 26 224 0.0 1.6 0.00 0.00 0.00 89 1014.0
20260902114534 26 227 0.0 1.6 0.00 0.00 0.00 89 1013.9
20260902114014 26 248 0.0 1.6 0.00 0.00 0.00 89 1013.9
20260902113507 26 264 0.0 1.6 0.00 0.00 0.00 89 1013.9
20260902113030 26 226 0.0 1.6 0.00 0.00 0.00 89 1013.8
20260902112512 26 240 0.0 1.6 0.00 0.00 0.00 88 1013.8
20260902112012 26 224 0.0 1.6 0.00 0.00 0.00 88 1013.8
20260902111525 26 265 0.0 1.6 0.00 0.00 0.00 88 1013.8
20260902111008 26 265 0.0 1.6 0.00 0.00 0.00 88 1013.8
20260902110515 26 262 0.0 1.6 0.00 0.00 0.00 88 1013.8
20260902110026 26 238 0.0 1.6 0.00 0.00 0.00 88 1013.9
20260902105507 26 229 0.0 1.6 0.00 0.00 0.00 88 1013.9
20260902105003 26 233 0.0 1.6 0.00 0.00 0.00 88 1013.9
20260902104535 26 217 0.0 1.6 0.00 0.00 0.00 88 1013.9
20260902104009 26 236 0.0 1.6 0.00 0.00 0.00 87 1014.0
20260902103515 26 243 0.0 1.6 0.00 0.00 0.00 87 1014.0
20260902103021 26 234 0.0 1.6 0.00 0.00 0.00 87 1014.0
20260902102504 26 233 0.0 1.6 0.00 0.00 0.00 86 1013.9
20260902102014 26 233 0.0 1.6 0.00 0.00 0.00 86 1013.9
20260902101527 26 232 0.0 1.6 0.00 0.00 0.00 86 1013.9
20260902101003 26 240 0.0 1.6 0.00 0.00 0.00 86 1013.8
20260902100511 26 237 0.0 1.6 0.00 0.00 0.00 86 1013.9
20260902100012 26 238 0.0 1.6 0.00 0.00 0.00 86 1013.9
20260902095514 26 244 0.0 1.6 0.00 0.00 0.00 85 1014.0
20260902095011 26 239 0.0 1.6 0.00 0.00 0.00 85 1014.0
20260902094508 26 219 0.0 1.6 0.00 0.00 0.00 85 1014.0
20260902094014 26 215 0.0 0.0 0.00 0.00 0.00 85 1014.1
20260902093508 26 215 0.0 1.6 0.00 0.00 0.00 85 1014.0
20260902093006 26 214 0.0 1.6 0.00 0.00 0.00 85 1014.0
20260902092510 26 227 0.0 1.6 0.00 0.00 0.00 85 1013.9
20260902092012 26 219 0.0 1.6 0.00 0.00 0.00 85 1014.0
20260902091526 26 219 0.0 1.6 0.00 0.00 0.00 85 1013.9
20260902091011 26 283 0.0 0.0 0.00 0.00 0.00 85 1013.9
20260902090504 26 283 0.0 0.0 0.00 0.00 0.00 85 1013.9
20260902090026 26 311 0.0 3.2 0.00 0.00 0.00 85 1013.9
20260902085508 26 30 0.0 3.2 0.00 0.00 0.00 85 1013.9
20260902085004 26 212 0.0 0.0 0.00 0.00 0.00 84 1014.0
20260902084525 26 212 0.0 1.6 0.00 0.00 0.00 84 1013.9
20260902084010 26 212 0.0 1.6 0.00 0.00 0.00 84 1013.9
20260902083514 26 210 0.0 0.0 0.00 0.00 0.00 83 1013.8
20260902083023 26 215 0.0 0.0 0.00 0.00 0.00 83 1013.8
20260902082504 26 215 0.0 0.0 0.00 0.00 0.00 83 1013.7
20260902082017 26 215 0.0 0.0 0.00 0.00 0.00 83 1013.7
20260902081519 26 215 0.0 0.0 0.00 0.00 0.00 84 1013.8
20260902081014 26 215 0.0 0.0 0.00 0.00 0.00 84 1013.8
20260902080512 25 216 0.0 0.0 0.00 0.00 0.00 84 1013.8
20260902080015 25 215 0.0 0.0 0.00 0.00 0.00 84 1013.7
20260902075505 25 215 0.0 0.0 0.00 0.00 0.00 84 1013.8
20260902075002 25 215 0.0 0.0 0.00 0.00 0.00 84 1013.9
20260902074511 25 215 0.0 0.0 0.00 0.00 0.00 84 1013.8
20260902074004 25 215 0.0 0.0 0.00 0.00 0.00 84 1013.9
20260902073503 25 215 0.0 0.0 0.00 0.00 0.00 85 1013.9
20260902073009 25 215 0.0 0.0 0.00 0.00 0.00 85 1013.9
20260902072502 25 215 0.0 0.0 0.00 0.00 0.00 85 1013.9
20260902072016 25 215 0.0 0.0 0.00 0.00 0.00 85 1014.0
20260902071506 25 215 0.0 0.0 0.00 0.00 0.00 86 1014.1
20260902071003 25 215 0.0 0.0 0.00 0.00 0.00 86 1014.1
20260902070506 25 215 0.0 0.0 0.00 0.00 0.00 86 1014.1
20260902070006 25 215 0.0 0.0 0.00 0.00 0.00 86 1014.1
20260902065504 25 215 0.0 0.0 0.00 0.00 0.00 86 1014.2
20260902065004 25 215 0.0 0.0 0.00 0.00 0.00 86 1014.1
20260902064503 25 215 0.0 0.0 0.00 0.00 0.00 86 1014.1
20260902064008 25 215 0.0 0.0 0.00 0.00 0.00 86 1014.2
20260902063506 25 215 0.0 0.0 0.00 0.00 0.00 87 1014.3
20260902063003 25 215 0.0 0.0 0.00 0.00 0.00 87 1014.3
20260902062507 25 215 0.0 1.6 0.00 0.00 0.00 87 1014.3
20260902062003 25 215 0.0 1.6 0.00 0.00 0.00 87 1014.2
20260902061535 25 215 0.0 1.6 0.00 0.00 0.00 87 1014.0
20260902061006 25 215 0.0 1.6 0.00 0.00 0.00 87 1014.0
20260902060502 25 215 0.0 1.6 0.00 0.00 0.00 87 1013.9
20260902060016 25 215 0.0 0.0 0.00 0.00 0.00 87 1014.0
20260902055505 25 215 0.0 0.0 0.00 0.00 0.00 87 1014.0
20260902055003 25 215 0.0 0.0 0.00 0.00 0.00 87 1013.9
20260902054514 25 215 0.0 1.6 0.00 0.00 0.00 87 1013.9
20260902054003 25 216 0.0 1.6 0.00 0.00 0.00 87 1014.1
20260902053511 25 212 0.0 0.0 0.00 0.00 0.00 88 1013.9
20260902053012 25 198 0.0 0.0 0.00 0.00 0.00 88 1013.7
20260902052507 25 198 0.0 0.0 0.00 0.00 0.00 88 1013.8
20260902052014 25 198 0.0 0.0 0.00 0.00 0.00 88 1014.1
20260902051506 25 199 0.0 0.0 0.00 0.00 0.00 88 1014.0
20260902051004 25 198 0.0 0.0 0.00 0.00 0.00 88 1014.0
20260902050508 25 196 0.0 1.6 0.00 0.00 0.00 88 1014.1
20260902050009 25 196 0.0 1.6 0.00 0.00 0.00 88 1014.1
20260902045510 25 346 0.0 1.6 0.00 0.00 0.00 88 1013.9
20260902045006 25 13 0.0 0.0 0.00 0.00 0.00 89 1013.9
20260902044504 25 13 0.0 0.0 0.00 0.00 0.00 89 1014.1
20260902044009 25 13 0.0 0.0 0.00 0.00 0.00 89 1013.9
20260902043505 25 13 0.0 0.0 0.00 0.00 0.00 89 1014.0
20260902043003 25 13 0.0 0.0 0.00 0.00 0.00 89 1014.0
20260902042508 25 13 0.0 0.0 0.00 0.00 0.00 89 1014.1
20260902042003 25 13 0.0 0.0 0.00 0.00 0.00 89 1014.2
20260902041522 25 13 0.0 0.0 0.00 0.00 0.00 89 1014.1
20260902041006 25 13 0.0 0.0 0.00 0.00 0.00 89 1014.4
20260902040503 25 13 0.0 0.0 0.00 0.00 0.00 89 1014.3
20260902040019 25 13 0.0 0.0 0.00 0.00 0.00 89 1014.4
20260902035503 25 13 0.0 0.0 0.00 0.00 0.00 89 1014.4
20260902035016 25 13 0.0 0.0 0.00 0.00 0.00 90 1014.3
20260902034514 25 13 0.0 0.0 0.00 0.00 0.00 90 1014.3
20260902034002 25 13 0.0 0.0 0.00 0.00 0.00 90 1014.3
20260902033511 25 13 0.0 0.0 0.00 0.00 0.00 89 1014.4
20260902033019 25 13 0.0 0.0 0.00 0.00 0.00 89 1014.4
20260902032506 25 13 0.0 0.0 0.00 0.00 0.00 89 1014.4
20260902032019 25 13 0.0 0.0 0.00 0.00 0.00 89 1014.3
20260902031509 25 13 0.0 0.0 0.00 0.00 0.00 88 1014.3
20260902031013 25 13 0.0 0.0 0.00 0.00 0.00 88 1014.3
20260902030508 25 13 0.0 0.0 0.00 0.00 0.00 88 1014.2
20260902030008 25 13 0.0 0.0 0.00 0.00 0.00 88 1014.2
20260902025515 25 13 0.0 0.0 0.00 0.00 0.00 87 1014.1
20260902025004 25 13 0.0 0.0 0.00 0.00 0.00 87 1014.0
20260902024506 25 13 0.0 0.0 0.00 0.00 0.00 87 1014.0
20260902024009 26 13 0.0 0.0 0.00 0.00 0.00 87 1013.9
20260902023504 26 13 0.0 0.0 0.00 0.00 0.00 86 1013.9
20260902023024 26 13 0.0 0.0 0.00 0.00 0.00 86 1013.8
20260902022512 26 13 0.0 0.0 0.00 0.00 0.00 86 1013.7
20260902022003 26 13 0.0 0.0 0.00 0.00 0.00 86 1013.5
20260902021527 26 13 0.0 0.0 0.00 0.00 0.00 85 1013.5
20260902021007 26 13 0.0 0.0 0.00 0.00 0.00 85 1013.4
20260902020513 26 13 0.0 0.0 0.00 0.00 0.00 85 1013.4
20260902020025 26 13 0.0 0.0 0.00 0.00 0.00 85 1013.4
20260902015504 26 13 0.0 0.0 0.00 0.00 0.00 85 1013.2
20260902015015 26 13 0.0 0.0 0.00 0.00 0.00 84 1013.1
20260902014518 26 13 0.0 0.0 0.00 0.00 0.00 84 1013.1
20260902014003 26 13 0.0 0.0 0.00 0.00 0.00 83 1013.1
20260902013511 26 13 0.0 0.0 0.00 0.00 0.00 83 1013.1
20260902013016 26 13 0.0 0.0 0.00 0.00 0.00 83 1013.0
20260902012515 26 14 0.0 0.0 0.00 0.00 0.00 82 1013.0
20260902012016 26 14 0.0 0.0 0.00 0.00 0.00 82 1012.8
20260902011511 26 14 0.0 0.0 0.00 0.00 0.00 81 1012.8
20260902011013 27 14 0.0 0.0 0.00 0.00 0.00 81 1012.9
20260902010507 27 14 0.0 0.0 0.00 0.00 0.00 81 1013.0
20260902010011 27 14 0.0 1.6 0.00 0.00 0.00 81 1013.0
20260902005517 27 14 0.0 1.6 0.00 0.00 0.00 81 1013.0
20260902005009 27 73 0.0 0.0 0.00 0.00 0.00 81 1013.1
20260902004528 27 74 0.0 0.0 0.00 0.00 0.00 81 1013.2
20260902004009 27 74 0.0 0.0 0.00 0.00 0.00 81 1013.3
20260902003505 27 74 0.0 0.0 0.00 0.00 0.00 81 1013.3
20260902003031 27 74 0.0 0.0 0.00 0.00 0.00 81 1013.4
20260902002507 27 73 0.0 0.0 0.00 0.00 0.00 81 1013.4
20260902002004 27 74 0.0 0.0 0.00 0.00 0.00 81 1013.2
20260902001524 27 73 0.0 0.0 0.00 0.00 0.00 81 1013.1
20260902001007 27 75 0.0 0.0 0.00 0.00 0.00 82 1013.1
20260902000513 27 75 0.0 0.0 0.00 0.00 0.00 82 1013.0
20260902000019 27 75 0.0 0.0 0.00 0.00 0.00 82 1013.1
20260901235504 27 75 0.0 0.0 0.00 0.00 0.00 83 1013.1
20260901235015 27 75 0.0 0.0 0.00 0.00 0.00 83 1013.2
20260901234516 27 74 0.0 0.0 0.00 0.00 0.00 83 1013.2
20260901234013 27 74 0.0 0.0 0.00 0.00 0.00 83 1013.3
20260901233509 27 74 0.0 1.6 0.00 0.00 0.00 83 1013.3
20260901233027 26 75 0.0 1.6 0.00 0.00 0.00 82 1013.2
20260901232514 27 72 0.0 1.6 0.00 0.00 0.00 82 1013.2
20260901232012 27 76 0.0 1.6 0.00 0.00 0.00 82 1013.2
20260901231513 27 76 0.0 1.6 0.00 0.00 0.00 81 1013.4
20260901231012 27 77 0.0 0.0 0.00 0.00 0.00 81 1013.5
20260901230509 27 77 0.0 1.6 0.00 0.00 0.00 79 1013.6
20260901230033 27 77 0.0 1.6 0.00 0.00 0.00 78 1013.6
20260901225513 27 82 0.0 3.2 0.00 0.00 0.00 76 1013.5
20260901225009 27 90 0.0 3.2 0.00 0.00 0.00 74 1013.7
20260901224536 28 79 0.0 3.2 0.00 0.00 0.00 73 1013.7
20260901224012 28 65 0.0 4.8 0.00 0.00 0.00 71 1013.8
20260901223505 29 93 0.0 4.8 0.00 0.00 0.00 70 1013.9
20260901223029 30 93 0.0 4.8 0.00 0.00 0.00 70 1013.8
20260901222510 30 76 0.0 6.4 0.00 0.00 0.00 68 1014.0
20260901222016 30 117 0.0 6.4 0.00 0.00 0.00 66 1014.0
20260901221527 31 110 1.6 9.7 0.00 0.00 0.00 63 1014.0
20260901221008 32 124 1.6 9.7 0.00 0.00 0.00 60 1014.0
20260901220515 33 76 0.0 1.6 0.00 0.00 0.00 57 1013.6
20260901220024 33 91 0.0 1.6 0.00 0.00 0.00 56 1013.5
20260901215506 33 89 0.0 1.6 0.00 0.00 0.00 57 1013.4
20260901215016 33 78 0.0 1.6 0.00 0.00 0.00 56 1013.5
20260901214519 33 42 0.0 1.6 0.00 0.00 0.00 56 1013.4
20260901214017 33 278 0.0 3.2 0.00 0.00 0.00 55 1013.5
20260901213512 33 319 0.0 3.2 0.00 0.00 0.00 55 1013.5
20260901213021 33 202 0.0 3.2 0.00 0.00 0.00 54 1013.4
20260901212514 33 306 0.0 3.2 0.00 0.00 0.00 54 1013.5
20260901212010 33 98 0.0 3.2 0.00 0.00 0.00 54 1013.6
20260901211533 34 271 0.0 1.6 0.00 0.00 0.00 54 1013.5
20260901211017 34 98 0.0 3.2 0.00 0.00 0.00 53 1013.5
20260901210511 35 86 0.0 3.2 0.00 0.00 0.00 52 1013.4
20260901210029 35 82 0.0 3.2 0.00 0.00 0.00 50 1013.5
20260901205512 35 31 0.0 3.2 0.00 0.00 0.00 52 1013.5
20260901205010 35 36 0.0 4.8 0.00 0.00 0.00 53 1013.4
20260901204529 35 94 0.0 4.8 0.00 0.00 0.00 52 1013.6
20260901204015 35 43 0.0 4.8 0.00 0.00 0.00 53 1013.6
20260901203516 35 97 1.6 4.8 0.00 0.00 0.00 54 1013.7
20260901203027 35 122 0.0 8.0 0.00 0.00 0.00 57 1013.8
20260901202513 35 89 1.6 8.0 0.00 0.00 0.00 57 1013.8
20260901202014 35 266 0.0 11.3 0.00 0.00 0.00 57 1014.0
20260901201526 35 27 0.0 11.3 0.00 0.00 0.00 57 1014.0
20260901201006 35 280 0.0 3.2 0.00 0.00 0.00 59 1014.3
20260901200517 34 58 0.0 1.6 0.00 0.00 0.00 61 1014.5
20260901200027 34 95 0.0 1.6 0.00 0.00 0.00 61 1014.5
20260901195518 34 308 0.0 3.2 0.00 0.00 0.00 61 1014.8
20260901195022 33 332 0.0 3.2 0.00 0.00 0.00 63 1014.9